�������C�����ː����j�^�v���󋵏��
Date,Time,Cs137(Bq/L),Cs134(Bq/L),�S��(Bq/L)
2021/02/21,00:00,-,-,15
2021/02/21,00:10,-,-,12
2021/02/21,00:20,-,-,13
2021/02/21,00:30,-,-,11
2021/02/21,00:40,-,-,12
2021/02/21,00:50,-,-,13
2021/02/21,01:00,-,-,11
2021/02/21,01:10,-,-,11
2021/02/21,01:20,-,-,9.2
2021/02/21,01:30,-,-,9.5
2021/02/21,01:40,-,-,10
2021/02/21,01:50,-,-,10
2021/02/21,02:00,-,-,10
2021/02/21,02:10,-,-,12
2021/02/21,02:20,-,-,15
2021/02/21,02:30,-,-,16
2021/02/21,02:40,-,-,17
2021/02/21,02:50,-,-,13
2021/02/21,03:00,-,-,14
2021/02/21,03:10,-,-,16
2021/02/21,03:20,-,-,17
2021/02/21,03:30,-,-,15
2021/02/21,03:40,-,-,15
2021/02/21,03:50,-,-,16
2021/02/21,04:00,-,-,18
2021/02/21,04:10,-,-,16
2021/02/21,04:20,-,-,13
2021/02/21,04:30,-,-,13
2021/02/21,04:40,-,-,11
2021/02/21,04:50,-,-,12
2021/02/21,05:00,-,-,9.7
2021/02/21,05:10,-,-,10
2021/02/21,05:20,-,-,11
2021/02/21,05:30,-,-,13
2021/02/21,05:40,-,-,16
2021/02/21,05:50,-,-,17
2021/02/21,06:00,-,-,16
2021/02/21,06:10,-,-,15
2021/02/21,06:20,-,-,16
2021/02/21,06:30,-,-,13
2021/02/21,06:40,-,-,13
2021/02/21,06:50,-,-,9.3
2021/02/21,07:00,-,-,12
2021/02/21,07:10,-,-,12
2021/02/21,07:20,-,-,12
2021/02/21,07:30,-,-,13
2021/02/21,07:40,-,-,15
2021/02/21,07:50,-,-,18
2021/02/21,08:00,-,-,18
2021/02/21,08:10,-,-,20
2021/02/21,08:20,-,-,21
2021/02/21,08:30,-,-,20
2021/02/21,08:40,-,-,17
2021/02/21,08:50,-,-,16
2021/02/21,09:00,-,-,17
2021/02/21,09:10,-,-,17
2021/02/21,09:20,-,-,14
2021/02/21,09:30,-,-,11
2021/02/21,09:40,-,-,12
2021/02/21,09:50,-,-,14
2021/02/21,10:00,-,-,12
2021/02/21,10:10,-,-,11
2021/02/21,10:20,-,-,12
2021/02/21,10:30,-,-,16
2021/02/21,10:40,-,-,17
2021/02/21,10:50,-,-,12
2021/02/21,11:00,-,-,15
2021/02/21,11:10,-,-,16
2021/02/21,11:20,-,-,17
2021/02/21,11:30,-,-,18
2021/02/21,11:40,-,-,18
2021/02/21,11:50,-,-,23
2021/02/21,12:00,-,-,21
2021/02/21,12:10,-,-,20
2021/02/21,12:20,-,-,20
2021/02/21,12:30,-,-,20
2021/02/21,12:40,-,-,20
2021/02/21,12:50,-,-,19
2021/02/21,13:00,-,-,20
2021/02/21,13:10,-,-,20
2021/02/21,13:20,-,-,18
2021/02/21,13:30,-,-,17
2021/02/21,13:40,-,-,14
2021/02/21,13:50,-,-,10
2021/02/21,14:00,-,-,13
2021/02/21,14:10,-,-,12
2021/02/21,14:20,-,-,12
2021/02/21,14:30,-,-,12
2021/02/21,14:40,-,-,14
2021/02/21,14:50,-,-,13
2021/02/21,15:00,-,-,11
2021/02/21,15:10,-,-,9.5
2021/02/21,15:20,-,-,8.8
2021/02/21,15:30,-,-,ND
2021/02/21,15:40,-,-,ND
2021/02/21,15:50,-,-,ND
2021/02/21,16:00,-,-,ND
2021/02/21,16:10,-,-,ND
2021/02/21,16:20,-,-,ND
2021/02/21,16:30,-,-,ND
2021/02/21,16:40,-,-,13
2021/02/21,16:50,-,-,14
2021/02/21,17:00,-,-,15
2021/02/21,17:10,-,-,15
2021/02/21,17:20,-,-,19
2021/02/21,17:30,-,-,19
2021/02/21,17:40,-,-,16
2021/02/21,17:50,-,-,16
2021/02/21,18:00,-,-,18
2021/02/21,18:10,-,-,15
2021/02/21,18:20,-,-,11
2021/02/21,18:30,-,-,ND
2021/02/21,18:40,-,-,11
2021/02/21,18:50,-,-,13
2021/02/21,19:00,-,-,12
2021/02/21,19:10,-,-,16
2021/02/21,19:20,-,-,14
2021/02/21,19:30,-,-,17
2021/02/21,19:40,-,-,13
2021/02/21,19:50,-,-,13
2021/02/21,20:00,-,-,12
2021/02/21,20:10,-,-,10
2021/02/21,20:20,-,-,11
2021/02/21,20:30,-,-,ND
2021/02/21,20:40,-,-,11
2021/02/21,20:50,-,-,9.2
2021/02/21,21:00,-,-,ND
2021/02/21,21:10,-,-,ND
2021/02/21,21:20,-,-,10
2021/02/21,21:30,-,-,12
2021/02/21,21:40,-,-,12
2021/02/21,21:50,-,-,14
2021/02/21,22:00,-,-,15
2021/02/21,22:10,-,-,15
2021/02/21,22:20,-,-,15
2021/02/21,22:30,-,-,16
2021/02/21,22:40,-,-,17
2021/02/21,22:50,-,-,13
2021/02/21,23:00,-,-,16
2021/02/21,23:10,-,-,15
2021/02/21,23:20,-,-,15
2021/02/21,23:30,-,-,12
2021/02/21,23:40,-,-,9.5
2021/02/21,23:50,-,-,11
